www.pogodaiklimat.ru

Погода и климат >> Архив погоды >> Мальдивы >> Kaadedhdhoo


ПОГОДА в Kaadedhdhoo

  • Прогноз погоды в Kaadedhdhoo
  • Монитор погоды в Kaadedhdhoo
  • Климат города

АРХИВ ПОГОДЫ в Kaadedhdhoo

Время (UTC), дата Ветер
(напр.,м/с)
 
Видим.   Явления Облачность Т
(С)
Тd
(С)
f
(%)
Тe
(С)
Тes
(С)
Комфортность P
(гПа)
Po
(гПа)
Тmin
(С)
Tmax
(С)
R
(мм)
R24
(мм)
S
(см)
06 14.05 СВ 2 20 км 8/4 540 м
[Cb cap Ac trans Cs]
+30.4 +25.3 74 +44 +52 опасность
перегрева
1010.8 1010.7
09 14.05 В 2 20 км 9/4 540 м
[Cb cap Ac trans Cs]
+30.7 +25.8 75 +46 +51 опасность
перегрева
1008.2 1008.1
12 14.05 нст 1 20 км 9/3 540 м
[Cu med, cong Ac trans Cs]
+29.4 +24.8 76 +42 +43 опасность
перегрева
1008.3 1008.2 +31.4
15 14.05 С 2 20 км 9/3 540 м
[Cu med, cong Ac trans Cs]
+28.8 +24.5 78 +41 +41 опасность
перегрева
1010.3 1010.2
18 14.05 С 2 20 км 9/4 540 м
[Cb cap Ac trans Cs]
+28.4 +25.3 83 +41 +41 опасность
перегрева
1010.3 1010.2
21 14.05 нст 1 20 км 9/3 540 м
[Cu med, cong Ac trans Cs]
+28.0 +25.2 85 +41 +41 опасность
перегрева
1008.1 1008.0
00 15.05 нст 1 20 км 9/3 540 м
[Cu med, cong Ac trans Cs]
+26.4 +25.1 93 +38 +38 очень
душно
1007.4 1007.3
03 15.05 нст 1 20 км 8/1 540 м
[Cu med, cong Ci sp]
+30.0 +25.5 77 +44 +48 опасность
перегрева
1009.7 1009.6 +25.5
06 15.05 С 2 20 км 6/3 540 м
[Cb cap Ac trans Ci sp]
+31.1 +25.0 70 +45 +55 опасность
перегрева
1009.9 1009.8
09 15.05 СЗ 2 20 км 5/3 540 м
[Cb cap Ac trans Ci sp]
+31.4 +25.2 70 +45 +55 опасность
перегрева
1007.6 1007.5
12 15.05 З 3 20 км 5/3 540 м
[Cu med, cong Ac trans Ci sp]
+30.5 +24.5 70 +43 +44 опасность
перегрева
1006.8 1006.7 +31.6
15 15.05 З 2 20 км 5/3 540 м
[Cu med, cong Ac trans Ci sp]
+28.5 +24.9 81 +41 +41 опасность
перегрева
1009.3 1009.2
18 15.05 ЮЗ 3 18 км 6/4 540 м
[Cb cap Ac trans Ci sp]
+28.4 +25.0 82 +41 +41 опасность
перегрева
1009.9 1009.8
21 15.05 ЮЗ 3 18 км 6/3 540 м
[Cu med, cong Ac trans Ci sp]
+28.5 +24.5 79 +40 +40 очень
душно
1007.6 1007.5
00 16.05 Ю 4 18 км 9/3 540 м
[Cu med, cong Ac trans Ci sp]
+28.0 +24.9 83 +40 +40 очень
душно
1007.1 1007.0
03 16.05 Ю 3 18 км 9/4 540 м
[Cb cap Ac und Ci sp]
+28.9 +25.2 80 +42 +43 опасность
перегрева
1009.0 1008.9 +27.4
06 16.05 Ю 3 18 км 9/3 540 м
[Cu med, cong Ac trans Cs]
+30.4 +25.9 77 +45 +51 опасность
перегрева
1009.6 1009.5
09 16.05 Ю 3 15 км 9// 540 м
[Cb cap Ac trans Cs]
+30.0 +25.2 76 +44 +51 опасность
перегрева
1006.9 1006.8
12 16.05 Ю 2 15 км 9/3 540 м
[Cu med, cong Ac trans Ci sp]
+30.0 +25.2 76 +44 +44 опасность
перегрева
1006.7 1006.6 +30.7
15 16.05 Ю 2 15 км 9/3 540 м
[Cu med, cong Ac trans Cs]
+28.4 +25.0 82 +41 +41 опасность
перегрева
1008.3 1008.2
18 16.05 Ю 3 2000 м слабый ливневой дождь 9/8 270 м
[Cb cap]
+27.5 +24.8 85 +39 +39 очень
душно
1009.7 1009.6 1
15 18.05 ЮЗ 2 9000 м слабый ливневой дождь 9/5 500 м
[Cb cap Ac trans Cs]
+26.4 +24.8 91 +38 +38 очень
душно
1008.0 1007.9
18 18.05 ЮЗ 4 12 км слабый ливневой дождь 9/5 500 м
[Cb cap Ac und Cs]
+28.0 +25.2 85 +41 +41 опасность
перегрева
1008.7 1008.6 2
21 18.05 штиль 0 9000 м слабый дождь {ливн. осадки} 9/5 500 м
[Cb cap As op]
+25.1 +24.8 98 +35 +35 очень
душно
1006.8 1006.7
00 19.05 Ю 5 8000 м слабый дождь {ливн. осадки} 10/5 480 м
[Cb cap As op]
+25.8 +24.6 93 +36 +36 очень
душно
1006.8 1006.7 15
03 19.05 Ю 3 8000 м слабый дождь 10/6 480 м
[Cb cap As op]
+26.6 +25.7 95 +39 +40 очень
душно
1008.3 1008.2 +24.2
06 19.05 В 2 4000 м ливневой дождь 10/5 480 м
[Cb cap As op]
+25.4 +24.5 95 +36 +38 очень
душно
1009.5 1009.4 4
09 19.05 нст 1 4000 м дождь {ливн. осадки} 10/5 480 м
[Cb cap As op]
+25.4 +25.4 100 +37 +39 очень
душно
1008.5 1008.4
12 19.05 З 3 3000 м дождь 10/5 480 м
[Cb cap As op]
+25.0 +24.6 98 +35 +35 очень
душно
1009.0 1008.9 +30.0 52
15 19.05 Ю 5 3000 м слабый дождь 10/5 480 м
[Cb cap As op]
+25.7 +25.0 96 +37 +37 очень
душно
1009.8 1009.7
18 19.05 ЮЗ 8 9000 м в посл. час дождь 10/5 300 м
[Cb cap As op]
+26.2 +24.6 91 +37 +37 очень
душно
1009.4 1009.3 13
21 19.05 З 9 9000 м в посл. час дождь 10/5 300 м
[Cb cap As op]
+26.4 +24.2 88 +37 +37 очень
душно
1008.6 1008.5
00 20.05 ЮЗ 6 10 км {ливн. осадки} 9/4 500 м
[Cb cap Ac trans]
+27.1 +23.9 83 +37 +37 очень
душно
1007.6 1007.5 13
03 20.05 ЮЗ 6 10 км 9/4 500 м
[Cb cap Ac trans]
+28.2 +24.3 79 +39 +40 очень
душно
1009.9 1009.8 +24.0
06 20.05 ЮЗ 5 12 км 9/4 500 м
[Cb cap Ac trans Cs]
+30.0 +25.5 77 +44 +47 опасность
перегрева
1010.8 1010.7
09 20.05 З 10 2000 м ливневой дождь 9/9 270 м
[Cb cap]
+25.2 +25.2 100 +36 +36 очень
душно
1008.8 1008.7
12 20.05 ЮЗ 3 10 км {ливн. осадки, дождь} 9/6 500 м
[Cb cap Ac As]
+27.3 +23.1 78 +37 +37 очень
душно
1007.3 1007.2 +30.9 17
15 20.05 З 4 10 км 9/3 540 м
[Cu med, cong Ac As]
+28.2 +23.4 75 +38 +38 очень
душно
1009.2 1009.1
18 20.05 З 3 10 км {ливн. осадки} 9/4 500 м
[Cb cap Ac trans Ci sp]
+28.2 +24.5 80 +40 +40 очень
душно
1009.3 1009.2 0.0
21 20.05 З 2 12 км 9/3 540 м
[Cu med, cong Ac trans Cs]
+28.0 +25.0 84 +40 +40 очень
душно
1007.2 1007.1
00 21.05 ЮЗ 2 12 км 9/4 540 м
[Cu med, cong Ac trans]
+27.6 +25.3 87 +40 +40 очень
душно
1007.6 1007.5 0.0

 

Местоположение метеостанции Kaadedhdhoo (Мальдивы): широта 0.48 долгота 72.98 высота над уровнем моря 2 м.

В архиве по умолчанию представлена погода в Kaadedhdhoo за последнюю неделю. Архивные данные за месяц целиком и за предыдущие месяцы, начиная с января 2011 года, Вы можете получить, выбрав интересующий диапазон дат из раскрывающегося списка и нажав кнопку "Ввод!".


*Определитесь, кто Вы:
робот инопланетянин человек

Внимание! Время в таблицах - всемирное. Для получения местного времени необходимо прибавить поправку, которая в Kaadedhdhoo равна 5 ч.

Смотрите также архив погоды в соседних городах и на ближайших метеорологических станциях:

Погода в Gan (Мальдивы) (130 км)
Погода в Kadhdhoo (Мальдивы) (166 км)
Погода в Male (Мальдивы) (418 км)
Погода в Hanimaadhoo (Мальдивы) (695 км)
Погода в Minicoy (Lakshadweep, Индия) (870 км)
Погода в Kanyakumari (Tamil Nadu, Индия) (983 км)
Погода в Thiruvananthapuram Air (Kerala, Индия) (992 км)
Погода в Thiruvananthapuram (Kerala, Индия) (993 км)
Погода в Galle (Шри Ланка) (1013 км)
Погода в Ratmalana (Шри Ланка) (1041 км)

Пояснения к столбцам:

Ветер - указаны скорость ветра в м/с - средняя за 10 мин, порывы в срок и между сроками (в фигурных скобках) и направление, откуда дует ветер: С - северный, СВ - северо-восточный, В - восточный, ЮВ - юго-восточный, Ю - южный, ЮЗ - юго-западный, З - западный, СЗ - северо-западный.
Видимость - горизонтальная дальность видимости в метрах или километрах. При видимости от 1 до 10 км при отсутствии осадков обычно наблюдается дымка, при ухудшении видимости до 1 км и менее - туман. В сухую погоду видимость может ухудшаться дымом, пылью или мглою.
Явления - указаны атмосферные явления, наблюдавшиеся в срок или в последний час перед сроком; фигурными скобками обозначены явления, наблюдавшиеся между сроками (за 1-3 часа до срока); квадратными скобками обозначены град или гололедные отложения с указанием их диаметра в мм.
Облачность - указаны через наклонную черту общая и нижняя облачность в баллах и высота нижней границы облаков в метрах; квадратными скобками обозначены формы облаков: Ci - перистые, Cs - перисто-слоистые, Cc - перисто-кучевые, Ac - высококучевые, As - высокослоистые, Sc - слоисто-кучевые, Ns - слоисто-дождевые, Cu - кучевые, Cb - кучево-дождевые. Подробнее классификацию облаков см. в Атласе облаков (PDF).
T - Температура воздуха - температура, измеренная на высоте 2 м над землей.
Td - Температура точки росы - температура, при понижении до которой содержащийся в воздухе водяной пар достигнет насыщения.
f - Относительная влажность воздуха - влажноcть воздуха, измеренная на высоте 2 м над землей.
Te - Эффективная температура - температура, которую ощущает одетый по сезону человек в тени. Характеристика душности погоды. При расчете учитывается влияние влажности воздуха и скорости ветра на теплоощущения человека.
Tes - Эффективная температура на солнце - температура, которую ощущает человек, с поправкой на солнечный нагрев. Характеристика знойности погоды. Зависит от высоты солнца над горизонтом, облачности и скорости ветра. Ночью, в пасмурную погоду, а также при ветре 12 м/с и более поправка равна нулю.
P - Атмосферное давление - приведенное к уровню моря атмосферное давление.
Po - Атмосферное давление - измеренное на уровне метеостанции атмосферное давление.
Tmin - Минимальная температура - минимум температуры воздуха на высоте 2 м над землей.
Tmax - Максимальная температура - максимум температуры воздуха на высоте 2 м над землей.
R - Количество осадков - Количество выпавших осадков за период времени, мм. При наведении курсора мыши на число - период времени, за который выпало указанное количество осадков.
R24 - Количество осадков - Количество выпавших осадков за 24 часа, мм.
S - Снежный покров - Высота снежного покрова, см. При наведении курсора мыши на число - состояние снежного покрова и степень покрытия местности в баллах.